^^

..:: Storico WU ::..




Lo storico viene creato da WUnderground con i dati che la stazione Meteomincio invia al loro server. L' aggiornamento viene fatto ogni 5 minuti circa, tuttavia possono esserci intervalli pił ampi a causa di errori, interruzioni di servizio o problemi nell' invio tramite FTP.


Storico stazione MeteoMincio
Giorno Sommario per Febbario 18, 2022 Unità:  Inglese    Metrico   Entrambi
Giorno Settimana Mese Anno
  Max: Min: Media:
Temperatura: 53.6 °F 32 °F 42.3 °F
Dew Point: 48.2 °F 32 °F 39.9 °F
Umidità: 100% 77% 92%
Velocità vento: 11.2mph 0mph 3mph
Raffica: 14.9mph - -
Direzione- - South
Pressione: 30.1 in 29.9 in -
Precipitazioni: 0 in    
 
 
Tabulato Dati per Febbario 18, 2022
Ora Temperatura Dew Point Pressione Direzione Velocità vento Raffica Umidità Intensità pioggia (oraria) Info solare Situazione
00:04 37.4 °F 35.6 °F 29.9 in NE 1.9 mph 3.1 mph 96% 0 in 0.00 W/m2 unknown
00:09 35.6 °F 35.6 °F 29.9 in Calm   1.9 mph 96% 0 in 0.00 W/m2 unknown
00:14 35.6 °F 35.6 °F 29.9 in NNE 1.9 mph 2.5 mph 96% 0 in 0.00 W/m2 unknown
00:19 35.6 °F 35.6 °F 29.9 in NNE 1.2 mph 2.5 mph 96% 0 in 0.00 W/m2 unknown
00:24 35.6 °F 35.6 °F 29.9 in NNE 0.6 mph 1.9 mph 96% 0 in 0.00 W/m2 unknown
00:29 35.6 °F 33.8 °F 29.9 in NNE 1.2 mph 2.5 mph 96% 0 in 0.00 W/m2 unknown
00:34 35.6 °F 33.8 °F 30 in NNE 1.9 mph 2.5 mph 96% 0 in 0.00 W/m2 unknown
00:39 35.6 °F 33.8 °F 30 in North 1.9 mph 2.5 mph 96% 0 in 0.00 W/m2 unknown
00:44 35.6 °F 33.8 °F 30 in Calm   1.9 mph 96% 0 in 0.00 W/m2 unknown
00:49 35.6 °F 33.8 °F 30 in Calm     96% 0 in 0.00 W/m2 unknown
00:54 35.6 °F 33.8 °F 30 in Calm     96% 0 in 0.00 W/m2 unknown
00:59 35.6 °F 33.8 °F 30 in North 1.9 mph 3.7 mph 96% 0 in 0.00 W/m2 unknown
01:04 35.6 °F 33.8 °F 30 in North 1.9 mph 3.1 mph 96% 0 in 0.00 W/m2 unknown
01:09 35.6 °F 33.8 °F 30 in North 1.2 mph 2.5 mph 96% 0 in 0.00 W/m2 unknown
01:14 35.6 °F 33.8 °F 30 in North 1.2 mph 2.5 mph 96% 0 in 0.00 W/m2 unknown
01:19 33.8 °F 33.8 °F 30 in NNE 1.9 mph 2.5 mph 96% 0 in 0.00 W/m2 unknown
01:24 35.6 °F 33.8 °F 30 in NNE 1.9 mph 2.5 mph 96% 0 in 0.00 W/m2 unknown
01:29 35.6 °F 33.8 °F 30 in NNE 1.2 mph 2.5 mph 96% 0 in 0.00 W/m2 unknown
01:34 33.8 °F 33.8 °F 30 in NNE 1.2 mph 2.5 mph 96% 0 in 0.00 W/m2 unknown
01:39 33.8 °F 33.8 °F 30 in NNE 1.2 mph 1.9 mph 96% 0 in 0.00 W/m2 unknown
01:44 33.8 °F 33.8 °F 30 in NNE 1.2 mph 2.5 mph 96% 0 in 0.00 W/m2 unknown
01:49 33.8 °F 33.8 °F 30 in NNE 1.2 mph 1.9 mph 96% 0 in 0.00 W/m2 unknown
01:54 33.8 °F 33.8 °F 30 in Calm   1.2 mph 96% 0 in 0.00 W/m2 unknown
01:59 33.8 °F 33.8 °F 30 in Calm     96% 0 in 0.00 W/m2 unknown
02:04 33.8 °F 32 °F 30 in Calm     96% 0 in 0.00 W/m2 unknown
02:09 33.8 °F 33.8 °F 30 in Calm     100% 0 in 0.00 W/m2 unknown
02:14 33.8 °F 32 °F 30 in Calm     96% 0 in 0.00 W/m2 unknown
02:19 32 °F 32 °F 30 in Calm     96% 0 in 0.00 W/m2 unknown
02:24 32 °F 32 °F 30 in East 2.5 mph 3.7 mph 96% 0 in 0.00 W/m2 unknown
02:29 32 °F 32 °F 30 in ENE 2.5 mph 3.7 mph 96% 0 in 0.00 W/m2 unknown
02:34 33.8 °F 32 °F 30 in East 2.5 mph 3.7 mph 97% 0 in 0.00 W/m2 unknown
02:39 33.8 °F 32 °F 30 in East 2.5 mph 3.7 mph 97% 0 in 0.00 W/m2 unknown
02:44 33.8 °F 32 °F 30 in ENE 2.5 mph 3.7 mph 97% 0 in 0.00 W/m2 unknown
02:49 33.8 °F 33.8 °F 30 in ENE 2.5 mph 3.7 mph 97% 0 in 0.00 W/m2 unknown
02:54 33.8 °F 33.8 °F 30 in ENE 3.1 mph 3.7 mph 97% 0 in 0.00 W/m2 unknown
02:59 33.8 °F 33.8 °F 30 in ENE 3.1 mph 3.7 mph 97% 0 in 0.00 W/m2 unknown
03:04 33.8 °F 33.8 °F 30 in ENE 3.1 mph 3.7 mph 97% 0 in 0.00 W/m2 unknown
03:09 33.8 °F 33.8 °F 30 in ENE 2.5 mph 3.7 mph 97% 0 in 0.00 W/m2 unknown
03:14 33.8 °F 32 °F 30 in ENE 3.1 mph 3.7 mph 97% 0 in 0.00 W/m2 unknown
03:19 33.8 °F 32 °F 30 in ENE 3.1 mph 5 mph 97% 0 in 0.00 W/m2 unknown
03:24 32 °F 32 °F 30 in East 3.1 mph 5 mph 97% 0 in 0.00 W/m2 unknown
03:29 32 °F 32 °F 30 in ENE 3.1 mph 3.7 mph 97% 0 in 0.00 W/m2 unknown
03:34 32 °F 32 °F 30 in East 3.1 mph 3.7 mph 97% 0 in 0.00 W/m2 unknown
03:39 32 °F 32 °F 30 in East 3.1 mph 5 mph 97% 0 in 0.00 W/m2 unknown
03:44 32 °F 32 °F 30 in East 3.1 mph 5 mph 97% 0 in 0.00 W/m2 unknown
03:49 32 °F 32 °F 30 in ENE 3.1 mph 5 mph 98% 0 in 0.00 W/m2 unknown
03:54 32 °F 32 °F 30 in ENE 3.1 mph 5 mph 98% 0 in 0.00 W/m2 unknown
03:59 33.8 °F 33.8 °F 30 in ENE 3.7 mph 5 mph 98% 0 in 0.00 W/m2 unknown
04:04 33.8 °F 33.8 °F 30 in ENE 3.7 mph 5 mph 98% 0 in 0.00 W/m2 unknown
04:09 35.6 °F 33.8 °F 30 in ENE 3.7 mph 5 mph 98% 0 in 0.00 W/m2 unknown
04:14 35.6 °F 35.6 °F 30 in ENE 4.3 mph 6.8 mph 98% 0 in 0.00 W/m2 unknown
04:19 35.6 °F 35.6 °F 30 in ENE 3.7 mph 6.8 mph 98% 0 in 0.00 W/m2 unknown
04:24 35.6 °F 35.6 °F 30 in ENE 4.3 mph 5 mph 98% 0 in 0.00 W/m2 unknown
04:29 35.6 °F 35.6 °F 30 in ENE 5 mph 5 mph 98% 0 in 0.00 W/m2 unknown
04:34 35.6 °F 33.8 °F 30 in ENE 3.7 mph 6.2 mph 98% 0 in 0.00 W/m2 unknown
04:39 35.6 °F 33.8 °F 30 in NE 3.7 mph 6.2 mph 98% 0 in 0.00 W/m2 unknown
04:44 35.6 °F 33.8 °F 30 in ENE 3.7 mph 5 mph 98% 0 in 0.00 W/m2 unknown
04:49 35.6 °F 33.8 °F 30 in ENE 3.7 mph 6.8 mph 98% 0 in 0.00 W/m2 unknown
04:54 35.6 °F 33.8 °F 30 in ENE 5 mph 6.8 mph 98% 0 in 0.00 W/m2 unknown
04:59 35.6 °F 33.8 °F 30 in ENE 5 mph 6.8 mph 98% 0 in 0.00 W/m2 unknown
05:04 35.6 °F 33.8 °F 30 in ENE 5 mph 6.8 mph 98% 0 in 0.00 W/m2 unknown
05:09 35.6 °F 33.8 °F 30 in ENE 5 mph 6.8 mph 98% 0 in 0.00 W/m2 unknown
05:14 35.6 °F 33.8 °F 30 in ENE 5 mph 6.8 mph 98% 0 in 0.00 W/m2 unknown
05:19 35.6 °F 33.8 °F 30 in ENE 5 mph 6.8 mph 98% 0 in 0.00 W/m2 unknown
05:24 35.6 °F 33.8 °F 30 in ENE 3.7 mph 6.2 mph 98% 0 in 0.00 W/m2 unknown
05:29 35.6 °F 33.8 °F 30 in ENE 3.1 mph 5 mph 98% 0 in 0.00 W/m2 unknown
05:34 35.6 °F 33.8 °F 30 in ENE 3.7 mph 5 mph 98% 0 in 0.00 W/m2 unknown
05:39 35.6 °F 33.8 °F 30 in ENE 3.1 mph 5 mph 98% 0 in 0.00 W/m2 unknown
05:44 35.6 °F 33.8 °F 30 in ENE 4.3 mph 6.8 mph 98% 0 in 0.00 W/m2 unknown
05:49 35.6 °F 33.8 °F 30 in ENE 5.6 mph 8.1 mph 98% 0 in 0.00 W/m2 unknown
05:54 35.6 °F 33.8 °F 30 in ENE 6.2 mph 8.1 mph 98% 0 in 0.00 W/m2 unknown
05:59 35.6 °F 33.8 °F 30 in ENE 3.7 mph 8.1 mph 98% 0 in 0.00 W/m2 unknown
06:04 35.6 °F 33.8 °F 30 in ENE 4.3 mph 6.8 mph 98% 0 in 0.00 W/m2 unknown
06:09 35.6 °F 33.8 °F 30 in ENE 3.1 mph 5 mph 98% 0 in 0.00 W/m2 unknown
06:14 35.6 °F 33.8 °F 30 in ENE 3.7 mph 5 mph 98% 0 in 0.00 W/m2 unknown
06:19 35.6 °F 33.8 °F 30 in ENE 4.3 mph 5 mph 98% 0 in 0.00 W/m2 unknown
06:24 35.6 °F 33.8 °F 30 in ENE 4.3 mph 5 mph 98% 0 in 0.00 W/m2 unknown
06:29 35.6 °F 35.6 °F 30 in ENE 5 mph 6.8 mph 98% 0 in 0.00 W/m2 unknown
06:34 35.6 °F 33.8 °F 30 in ENE 5 mph 6.8 mph 98% 0 in 0.00 W/m2 unknown
06:39 35.6 °F 33.8 °F 30 in ENE 2.5 mph 5 mph 98% 0 in 0.00 W/m2 unknown
06:44 35.6 °F 33.8 °F 30 in ENE 3.1 mph 3.7 mph 98% 0 in 0.00 W/m2 unknown
06:49 35.6 °F 33.8 °F 30 in ENE 3.1 mph 3.7 mph 98% 0 in 0.00 W/m2 unknown
06:54 35.6 °F 33.8 °F 30 in ENE 2.5 mph 3.7 mph 98% 0 in 0.00 W/m2 unknown
06:59 35.6 °F 33.8 °F 30 in East 2.5 mph 3.7 mph 98% 0 in 0.00 W/m2 unknown
07:04 35.6 °F 33.8 °F 30 in East 2.5 mph 3.7 mph 98% 0 in 0.00 W/m2 unknown
07:09 35.6 °F 33.8 °F 30 in East 2.5 mph 3.7 mph 98% 0 in 0.00 W/m2 unknown
07:14 35.6 °F 33.8 °F 30 in East 2.5 mph 3.7 mph 98% 0 in 0.00 W/m2 unknown
07:19 35.6 °F 33.8 °F 30 in ESE 2.5 mph 3.7 mph 98% 0 in 5.00 W/m2 unknown
07:24 33.8 °F 33.8 °F 30 in ESE 1.9 mph 3.7 mph 98% 0 in 7.00 W/m2 unknown
07:29 33.8 °F 33.8 °F 30 in ESE 1.2 mph 3.1 mph 98% 0 in 11.00 W/m2 unknown
07:34 33.8 °F 33.8 °F 30 in SE 1.2 mph 1.9 mph 98% 0 in 16.00 W/m2 unknown
07:39 33.8 °F 33.8 °F 30 in SSW 3.1 mph 3.7 mph 98% 0 in 21.00 W/m2 unknown
07:44 33.8 °F 33.8 °F 30 in SW 3.7 mph 5 mph 98% 0 in 23.00 W/m2 unknown
07:49 33.8 °F 33.8 °F 30 in SW 4.3 mph 5 mph 98% 0 in 28.00 W/m2 unknown
07:54 33.8 °F 32 °F 30 in WSW 2.5 mph 5 mph 98% 0 in 32.00 W/m2 unknown
07:59 32 °F 32 °F 30 in SW 1.2 mph 3.1 mph 98% 0 in 37.00 W/m2 unknown
08:04 32 °F 32 °F 30 in SW 2.5 mph 3.7 mph 98% 0 in 44.00 W/m2 unknown
08:09 32 °F 32 °F 30 in SW 3.1 mph 3.7 mph 98% 0 in 49.00 W/m2 unknown
08:14 32 °F 32 °F 30 in SW 2.5 mph 3.7 mph 98% 0 in 51.00 W/m2 unknown
08:19 32 °F 32 °F 30.1 in SW 3.1 mph 3.7 mph 98% 0 in 58.00 W/m2 unknown
08:24 32 °F 32 °F 30.1 in SW 3.1 mph 3.7 mph 98% 0 in 65.00 W/m2 unknown
08:29 32 °F 32 °F 30.1 in SW 2.5 mph 3.7 mph 98% 0 in 69.00 W/m2 unknown
08:34 32 °F 32 °F 30.1 in SW 3.7 mph 5 mph 98% 0 in 72.00 W/m2 unknown
08:39 32 °F 32 °F 30.1 in SW 3.7 mph 5 mph 98% 0 in 77.00 W/m2 unknown
08:44 32 °F 32 °F 30.1 in SW 3.1 mph 5 mph 98% 0 in 84.00 W/m2 unknown
08:49 32 °F 32 °F 30.1 in SW 3.1 mph 3.7 mph 98% 0 in 88.00 W/m2 unknown
08:54 33.8 °F 32 °F 30.1 in SW 1.9 mph 3.7 mph 98% 0 in 91.00 W/m2 unknown
08:59 33.8 °F 32 °F 30.1 in SW 2.5 mph 3.7 mph 98% 0 in 102.00 W/m2 unknown
09:04 33.8 °F 32 °F 30.1 in SW 3.1 mph 3.7 mph 98% 0 in 105.00 W/m2 unknown
09:09 33.8 °F 32 °F 30.1 in WSW 3.1 mph 3.7 mph 98% 0 in 107.00 W/m2 unknown
09:14 33.8 °F 32 °F 30.1 in SW 3.1 mph 3.7 mph 98% 0 in 121.00 W/m2 unknown
09:19 33.8 °F 33.8 °F 30.1 in WSW 3.1 mph 3.7 mph 98% 0 in 121.00 W/m2 unknown
09:24 33.8 °F 33.8 °F 30.1 in West 1.9 mph 3.7 mph 98% 0 in 130.00 W/m2 unknown
09:29 33.8 °F 33.8 °F 30.1 in WNW 3.1 mph 3.7 mph 98% 0 in 130.00 W/m2 unknown
09:34 33.8 °F 33.8 °F 30.1 in WNW 1.9 mph 3.7 mph 98% 0 in 114.00 W/m2 unknown
09:39 33.8 °F 33.8 °F 30.1 in WSW 0.6 mph 2.5 mph 98% 0 in 125.00 W/m2 unknown
09:44 33.8 °F 33.8 °F 30.1 in WSW 2.5 mph 3.7 mph 98% 0 in 127.00 W/m2 unknown
09:49 33.8 °F 33.8 °F 30.1 in West 2.5 mph 3.7 mph 99% 0 in 137.00 W/m2 unknown
09:54 35.6 °F 33.8 °F 30.1 in West 0.6 mph 1.2 mph 99% 0 in 156.00 W/m2 unknown
09:59 35.6 °F 33.8 °F 30.1 in WSW 1.9 mph 2.5 mph 99% 0 in 158.00 W/m2 unknown
10:04 35.6 °F 35.6 °F 30.1 in SSW 1.2 mph 2.5 mph 99% 0 in 207.00 W/m2 unknown
10:09 35.6 °F 35.6 °F 30.1 in Calm   1.9 mph 99% 0 in 207.00 W/m2 unknown
10:14 35.6 °F 35.6 °F 30.1 in Calm   1.2 mph 99% 0 in 193.00 W/m2 unknown
10:19 35.6 °F 35.6 °F 30.1 in SW 1.9 mph 3.7 mph 99% 0 in 246.00 W/m2 unknown
10:24 37.4 °F 35.6 °F 30.1 in WSW 0.6 mph 3.1 mph 99% 0 in 262.00 W/m2 unknown
10:29 37.4 °F 37.4 °F 30.1 in WNW 0.6 mph 1.2 mph 99% 0 in 323.00 W/m2 unknown
10:34 37.4 °F 37.4 °F 30.1 in NW 0.6 mph 1.2 mph 99% 0 in 332.00 W/m2 unknown
10:39 37.4 °F 37.4 °F 30.1 in North 1.9 mph 3.7 mph 99% 0 in 232.00 W/m2 unknown
10:44 37.4 °F 37.4 °F 30.1 in North 2.5 mph 3.7 mph 99% 0 in 190.00 W/m2 unknown
10:49 37.4 °F 37.4 °F 30.1 in North 3.1 mph 3.7 mph 99% 0 in 214.00 W/m2 unknown
10:54 37.4 °F 37.4 °F 30.1 in North 3.1 mph 3.7 mph 99% 0 in 225.00 W/m2 unknown
10:59 37.4 °F 37.4 °F 30.1 in NNW 1.2 mph 3.1 mph 99% 0 in 244.00 W/m2 unknown
11:04 37.4 °F 37.4 °F 30.1 in NNE 3.1 mph 3.7 mph 99% 0 in 297.00 W/m2 unknown
11:09 39.2 °F 39.2 °F 30.1 in NNE 1.9 mph 3.7 mph 99% 0 in 309.00 W/m2 unknown
11:14 39.2 °F 39.2 °F 30.1 in NNE 2.5 mph 3.7 mph 99% 0 in 341.00 W/m2 unknown
11:19 39.2 °F 39.2 °F 30.1 in North 2.5 mph 3.7 mph 99% 0 in 271.00 W/m2 unknown
11:24 39.2 °F 39.2 °F 30.1 in North 2.5 mph 3.7 mph 99% 0 in 213.00 W/m2 unknown
11:29 39.2 °F 39.2 °F 30.1 in NNE 2.5 mph 3.7 mph 99% 0 in 392.00 W/m2 unknown
11:34 41 °F 39.2 °F 30.1 in NE 5 mph 8.1 mph 99% 0 in 424.00 W/m2 unknown
11:39 41 °F 39.2 °F 30.1 in ENE 5 mph 8.1 mph 99% 0 in 432.00 W/m2 unknown
11:44 41 °F 41 °F 30.1 in NNE 3.7 mph 8.1 mph 99% 0 in 515.00 W/m2 unknown
11:49 42.8 °F 42.8 °F 30.1 in NNE 3.1 mph 6.2 mph 99% 0 in 494.00 W/m2 unknown
11:54 42.8 °F 42.8 °F 30.1 in NNE 3.1 mph 5 mph 99% 0 in 496.00 W/m2 unknown
11:59 42.8 °F 42.8 °F 30.1 in NNE 3.1 mph 5 mph 99% 0 in 506.00 W/m2 unknown
12:04 44.6 °F 42.8 °F 30.1 in NE 3.1 mph 5 mph 99% 0 in 506.00 W/m2 unknown
12:09 44.6 °F 42.8 °F 30.1 in East 5 mph 6.2 mph 98% 0 in 512.00 W/m2 unknown
12:14 44.6 °F 42.8 °F 30.1 in ENE 3.1 mph 6.2 mph 96% 0 in 515.00 W/m2 unknown
12:19 46.4 °F 42.8 °F 30.1 in ENE 7.5 mph 11.2 mph 93% 0 in 513.00 W/m2 unknown
12:24 48.2 °F 44.6 °F 30.1 in ENE 6.8 mph 11.8 mph 90% 0 in 510.00 W/m2 unknown
12:29 48.2 °F 44.6 °F 30.1 in ENE 6.8 mph 11.8 mph 88% 0 in 515.00 W/m2 unknown
12:34 48.2 °F 44.6 °F 30.1 in ENE 6.2 mph 9.9 mph 87% 0 in 510.00 W/m2 unknown
12:39 50 °F 44.6 °F 30.1 in ENE 5.6 mph 8.7 mph 86% 0 in 504.00 W/m2 unknown
12:44 50 °F 46.4 °F 30.1 in East 4.3 mph 8.1 mph 85% 0 in 504.00 W/m2 unknown
12:49 50 °F 46.4 °F 30.1 in ESE 5 mph 8.1 mph 84% 0 in 510.00 W/m2 unknown
12:54 51.8 °F 46.4 °F 30.1 in ESE 8.7 mph 11.8 mph 84% 0 in 504.00 W/m2 unknown
12:59 51.8 °F 44.6 °F 30.1 in ESE 8.1 mph 11.8 mph 80% 0 in 503.00 W/m2 unknown
13:04 51.8 °F 44.6 °F 30.1 in East 8.7 mph 11.8 mph 79% 0 in 504.00 W/m2 unknown
13:09 51.8 °F 44.6 °F 30 in ESE 8.7 mph 11.8 mph 79% 0 in 504.00 W/m2 unknown
13:14 51.8 °F 44.6 °F 30 in East 10.6 mph 14.9 mph 78% 0 in 497.00 W/m2 unknown
13:19 51.8 °F 46.4 °F 30 in SE 11.2 mph 14.9 mph 84% 0 in 497.00 W/m2 unknown
13:24 50 °F 46.4 °F 30 in SSW 5 mph 14.9 mph 85% 0 in 478.00 W/m2 unknown
13:29 51.8 °F 46.4 °F 30 in SSW 4.3 mph 6.2 mph 86% 0 in 485.00 W/m2 unknown
13:34 51.8 °F 46.4 °F 30 in SW 5.6 mph 6.8 mph 85% 0 in 462.00 W/m2 unknown
13:39 51.8 °F 46.4 °F 30 in SSW 5.6 mph 6.8 mph 85% 0 in 473.00 W/m2 unknown
13:44 51.8 °F 46.4 °F 30 in SW 5 mph 6.8 mph 84% 0 in 478.00 W/m2 unknown
13:49 51.8 °F 46.4 °F 30 in SW 5.6 mph 6.8 mph 84% 0 in 490.00 W/m2 unknown
13:54 51.8 °F 46.4 °F 30 in SW 5.6 mph 6.8 mph 83% 0 in 496.00 W/m2 unknown
13:59 51.8 °F 46.4 °F 30 in WSW 5.6 mph 6.8 mph 83% 0 in 462.00 W/m2 unknown
14:04 51.8 °F 46.4 °F 30 in SW 5.6 mph 6.8 mph 84% 0 in 464.00 W/m2 unknown
14:09 51.8 °F 48.2 °F 30 in SW 5 mph 6.8 mph 85% 0 in 494.00 W/m2 unknown
14:14 51.8 °F 48.2 °F 30 in WSW 5.6 mph 6.8 mph 83% 0 in 439.00 W/m2 unknown
14:19 51.8 °F 48.2 °F 30 in WSW 6.8 mph 8.1 mph 84% 0 in 399.00 W/m2 unknown
14:24 51.8 °F 48.2 °F 30 in WSW 6.8 mph 8.1 mph 84% 0 in 381.00 W/m2 unknown
14:29 51.8 °F 48.2 °F 30 in WSW 6.2 mph 8.1 mph 84% 0 in 399.00 W/m2 unknown
14:34 51.8 °F 48.2 °F 30 in WSW 6.2 mph 8.1 mph 84% 0 in 399.00 W/m2 unknown
14:39 51.8 °F 48.2 °F 30 in WSW 5.6 mph 8.1 mph 83% 0 in 429.00 W/m2 unknown
14:44 51.8 °F 48.2 °F 30 in West 6.2 mph 6.8 mph 83% 0 in 394.00 W/m2 unknown
14:49 53.6 °F 48.2 °F 30 in West 5 mph 6.2 mph 83% 0 in 378.00 W/m2 unknown
14:54 51.8 °F 46.4 °F 30 in West 5 mph 6.2 mph 82% 0 in 346.00 W/m2 unknown
14:59 53.6 °F 48.2 °F 30 in WSW 5.6 mph 6.8 mph 82% 0 in 346.00 W/m2 unknown
15:04 53.6 °F 48.2 °F 30 in WSW 5.6 mph 6.8 mph 83% 0 in 339.00 W/m2 unknown
15:09 53.6 °F 48.2 °F 30 in WSW 5.6 mph 6.8 mph 82% 0 in 251.00 W/m2 unknown
15:14 53.6 °F 48.2 °F 30 in WSW 5 mph 6.8 mph 82% 0 in 188.00 W/m2 unknown
15:19 53.6 °F 48.2 °F 30 in WSW 5 mph 6.2 mph 81% 0 in 199.00 W/m2 unknown
15:24 53.6 °F 48.2 °F 30 in WSW 4.3 mph 6.2 mph 81% 0 in 264.00 W/m2 unknown
15:29 53.6 °F 48.2 °F 30 in West 4.3 mph 6.2 mph 81% 0 in 237.00 W/m2 unknown
15:34 53.6 °F 48.2 °F 30 in West 2.5 mph 3.7 mph 80% 0 in 279.00 W/m2 unknown
15:39 53.6 °F 48.2 °F 30 in SW 5 mph 6.8 mph 80% 0 in 265.00 W/m2 unknown
15:44 53.6 °F 46.4 °F 30 in SSE 4.3 mph 6.8 mph 78% 0 in 265.00 W/m2 unknown
15:49 53.6 °F 46.4 °F 30 in South 5.6 mph 6.8 mph 78% 0 in 258.00 W/m2 unknown
15:54 53.6 °F 46.4 °F 30 in SSW 5 mph 6.8 mph 77% 0 in 236.00 W/m2 unknown
15:59 53.6 °F 46.4 °F 30 in SSW 5 mph 6.8 mph 77% 0 in 213.00 W/m2 unknown
16:04 53.6 °F 46.4 °F 30 in SSW 5 mph 6.8 mph 77% 0 in 188.00 W/m2 unknown
16:09 53.6 °F 46.4 °F 30 in SW 4.3 mph 6.2 mph 78% 0 in 171.00 W/m2 unknown
16:14 53.6 °F 46.4 °F 30 in SSW 4.3 mph 6.2 mph 78% 0 in 172.00 W/m2 unknown
16:19 53.6 °F 46.4 °F 30 in SW 5 mph 6.2 mph 78% 0 in 153.00 W/m2 unknown
16:24 53.6 °F 46.4 °F 30 in SSW 4.3 mph 6.2 mph 78% 0 in 141.00 W/m2 unknown
16:29 53.6 °F 46.4 °F 30 in WSW 3.7 mph 4.3 mph 78% 0 in 132.00 W/m2 unknown
16:34 53.6 °F 46.4 °F 30 in WSW 3.7 mph 3.7 mph 78% 0 in 121.00 W/m2 unknown
16:39 53.6 °F 46.4 °F 30 in SW 3.1 mph 3.7 mph 78% 0 in 114.00 W/m2 unknown
16:44 53.6 °F 46.4 °F 30 in WSW 3.1 mph 5 mph 78% 0 in 98.00 W/m2 unknown
16:49 53.6 °F 46.4 °F 30 in WSW 3.7 mph 5 mph 81% 0 in 83.00 W/m2 unknown
16:54 51.8 °F 46.4 °F 30 in WSW 4.3 mph 5 mph 82% 0 in 72.00 W/m2 unknown
16:59 51.8 °F 46.4 °F 30 in WSW 3.1 mph 5 mph 83% 0 in 67.00 W/m2 unknown
17:04 51.8 °F 46.4 °F 30 in West 3.7 mph 5 mph 84% 0 in 60.00 W/m2 unknown
17:09 51.8 °F 46.4 °F 30 in West 3.7 mph 5 mph 84% 0 in 47.00 W/m2 unknown
17:14 51.8 °F 46.4 °F 30 in WNW 3.7 mph 5 mph 85% 0 in 39.00 W/m2 unknown
17:19 51.8 °F 46.4 °F 30 in WNW 3.7 mph 5 mph 85% 0 in 32.00 W/m2 unknown
17:24 50 °F 46.4 °F 30 in WNW 3.1 mph 5 mph 85% 0 in 21.00 W/m2 unknown
17:29 50 °F 46.4 °F 30 in WNW 3.1 mph 3.7 mph 86% 0 in 18.00 W/m2 unknown
17:34 50 °F 46.4 °F 30 in WNW 3.1 mph 3.7 mph 86% 0 in 9.00 W/m2 unknown
17:39 50 °F 46.4 °F 30 in NW 2.5 mph 3.7 mph 87% 0 in 7.00 W/m2 unknown
17:44 50 °F 46.4 °F 30 in NW 2.5 mph 3.7 mph 87% 0 in 5.00 W/m2 unknown
17:49 50 °F 46.4 °F 30 in NW 1.9 mph 3.7 mph 88% 0 in 0.00 W/m2 unknown
17:54 48.2 °F 44.6 °F 30 in WNW 2.5 mph 3.7 mph 88% 0 in 0.00 W/m2 unknown
17:59 48.2 °F 44.6 °F 30 in WNW 2.5 mph 3.7 mph 88% 0 in 0.00 W/m2 unknown
18:04 48.2 °F 44.6 °F 30 in WNW 1.2 mph 3.1 mph 88% 0 in 0.00 W/m2 unknown
18:09 48.2 °F 44.6 °F 30 in WNW 1.2 mph 2.5 mph 88% 0 in 0.00 W/m2 unknown
18:14 48.2 °F 44.6 °F 30 in Calm   1.9 mph 89% 0 in 0.00 W/m2 unknown
18:19 48.2 °F 44.6 °F 30 in Calm     89% 0 in 0.00 W/m2 unknown
18:24 46.4 °F 44.6 °F 30 in Calm   1.2 mph 90% 0 in 0.00 W/m2 unknown
18:29 46.4 °F 44.6 °F 30 in Calm   1.2 mph 91% 0 in 0.00 W/m2 unknown
18:34 46.4 °F 44.6 °F 30 in Calm     91% 0 in 0.00 W/m2 unknown
18:39 46.4 °F 44.6 °F 30 in Calm     91% 0 in 0.00 W/m2 unknown
18:44 46.4 °F 44.6 °F 30 in SW 1.2 mph 3.1 mph 91% 0 in 0.00 W/m2 unknown
18:49 46.4 °F 44.6 °F 30 in SSW 2.5 mph 3.7 mph 91% 0 in 0.00 W/m2 unknown
18:54 46.4 °F 44.6 °F 30 in SW 3.1 mph 3.7 mph 91% 0 in 0.00 W/m2 unknown
18:59 48.2 °F 44.6 °F 30 in SSW 3.1 mph 3.7 mph 91% 0 in 0.00 W/m2 unknown
19:04 48.2 °F 44.6 °F 30 in SW 3.1 mph 3.7 mph 91% 0 in 0.00 W/m2 unknown
19:09 48.2 °F 44.6 °F 30 in SW 1.9 mph 3.7 mph 91% 0 in 0.00 W/m2 unknown
19:14 48.2 °F 44.6 °F 30 in SW 1.9 mph 3.7 mph 91% 0 in 0.00 W/m2 unknown
19:19 46.4 °F 44.6 °F 30 in WSW 1.9 mph 3.1 mph 91% 0 in 0.00 W/m2 unknown
19:24 46.4 °F 44.6 °F 30 in WSW 1.9 mph 3.7 mph 91% 0 in 0.00 W/m2 unknown
19:29 46.4 °F 44.6 °F 30 in SW 2.5 mph 3.7 mph 91% 0 in 0.00 W/m2 unknown
19:34 48.2 °F 44.6 °F 30 in SW 3.1 mph 3.7 mph 91% 0 in 0.00 W/m2 unknown
19:39 48.2 °F 44.6 °F 30 in SW 3.1 mph 3.7 mph 91% 0 in 0.00 W/m2 unknown
19:44 48.2 °F 44.6 °F 30 in SW 1.9 mph 3.7 mph 91% 0 in 0.00 W/m2 unknown
19:49 48.2 °F 44.6 °F 30 in SW 1.9 mph 3.7 mph 90% 0 in 0.00 W/m2 unknown
19:54 48.2 °F 44.6 °F 30 in SW 1.2 mph 3.1 mph 90% 0 in 0.00 W/m2 unknown
19:59 48.2 °F 44.6 °F 30 in WSW 1.9 mph 3.7 mph 90% 0 in 0.00 W/m2 unknown
20:04 48.2 °F 44.6 °F 30 in WSW 2.5 mph 3.7 mph 91% 0 in 0.00 W/m2 unknown
20:09 48.2 °F 44.6 °F 30 in West 2.5 mph 3.7 mph 91% 0 in 0.00 W/m2 unknown
20:14 48.2 °F 44.6 °F 30 in West 3.1 mph 3.7 mph 91% 0 in 0.00 W/m2 unknown
20:19 48.2 °F 44.6 °F 30 in West 3.1 mph 3.7 mph 90% 0 in 0.00 W/m2 unknown
20:24 48.2 °F 44.6 °F 30 in West 3.1 mph 3.7 mph 90% 0 in 0.00 W/m2 unknown
20:29 48.2 °F 44.6 °F 30 in West 3.1 mph 3.7 mph 90% 0 in 0.00 W/m2 unknown
20:34 48.2 °F 44.6 °F 30 in WNW 4.3 mph 6.2 mph 90% 0 in 0.00 W/m2 unknown
20:39 48.2 °F 44.6 °F 30 in WNW 4.3 mph 6.2 mph 90% 0 in 0.00 W/m2 unknown
20:44 48.2 °F 44.6 °F 30 in WNW 3.1 mph 5 mph 90% 0 in 0.00 W/m2 unknown
20:49 48.2 °F 44.6 °F 30 in WNW 2.5 mph 5 mph 90% 0 in 0.00 W/m2 unknown
20:54 48.2 °F 44.6 °F 30 in WNW 3.1 mph 3.7 mph 90% 0 in 0.00 W/m2 unknown
20:59 48.2 °F 44.6 °F 30 in WNW 3.1 mph 3.7 mph 90% 0 in 0.00 W/m2 unknown
21:04 48.2 °F 44.6 °F 30 in WNW 2.5 mph 3.7 mph 90% 0 in 0.00 W/m2 unknown
21:09 48.2 °F 44.6 °F 30 in WNW 2.5 mph 3.7 mph 90% 0 in 0.00 W/m2 unknown
21:14 48.2 °F 44.6 °F 30 in WNW 3.1 mph 3.7 mph 90% 0 in 0.00 W/m2 unknown
21:19 48.2 °F 44.6 °F 30 in West 2.5 mph 3.7 mph 90% 0 in 0.00 W/m2 unknown
21:24 48.2 °F 44.6 °F 30 in West 1.9 mph 3.1 mph 91% 0 in 0.00 W/m2 unknown
21:29 48.2 °F 44.6 °F 30 in West 2.5 mph 3.7 mph 91% 0 in 0.00 W/m2 unknown
21:34 46.4 °F 44.6 °F 30 in West 2.5 mph 3.7 mph 91% 0 in 0.00 W/m2 unknown
21:39 46.4 °F 44.6 °F 30 in West 1.2 mph 3.1 mph 92% 0 in 0.00 W/m2 unknown
21:44 46.4 °F 44.6 °F 30 in WSW 1.9 mph 2.5 mph 92% 0 in 0.00 W/m2 unknown
21:49 46.4 °F 44.6 °F 30 in WSW 1.2 mph 2.5 mph 91% 0 in 0.00 W/m2 unknown
21:54 46.4 °F 44.6 °F 30 in Calm   1.2 mph 91% 0 in 0.00 W/m2 unknown
21:59 46.4 °F 44.6 °F 30 in WSW 1.9 mph 3.7 mph 91% 0 in 0.00 W/m2 unknown
22:04 46.4 °F 44.6 °F 30 in WSW 1.2 mph 3.1 mph 92% 0 in 0.00 W/m2 unknown
22:09 46.4 °F 44.6 °F 30 in WSW 1.9 mph 3.7 mph 92% 0 in 0.00 W/m2 unknown
22:14 46.4 °F 44.6 °F 30 in WSW 1.9 mph 3.1 mph 92% 0 in 0.00 W/m2 unknown
22:19 46.4 °F 44.6 °F 30 in WSW 1.2 mph 2.5 mph 92% 0 in 0.00 W/m2 unknown
22:24 46.4 °F 44.6 °F 30 in WSW 1.2 mph 2.5 mph 92% 0 in 0.00 W/m2 unknown
22:29 46.4 °F 44.6 °F 30 in WSW 1.2 mph 2.5 mph 92% 0 in 0.00 W/m2 unknown
22:34 46.4 °F 44.6 °F 30 in WSW 1.9 mph 3.7 mph 92% 0 in 0.00 W/m2 unknown
22:39 46.4 °F 44.6 °F 30 in West 2.5 mph 3.7 mph 92% 0 in 0.00 W/m2 unknown
22:44 46.4 °F 44.6 °F 30 in NW 2.5 mph 3.7 mph 92% 0 in 0.00 W/m2 unknown
22:49 46.4 °F 44.6 °F 30 in West 1.9 mph 3.7 mph 92% 0 in 0.00 W/m2 unknown
22:54 46.4 °F 44.6 °F 30 in West 1.2 mph 3.1 mph 92% 0 in 0.00 W/m2 unknown
22:59 46.4 °F 44.6 °F 30 in SW 1.9 mph 2.5 mph 92% 0 in 0.00 W/m2 unknown
23:04 46.4 °F 44.6 °F 30 in SSW 1.2 mph 2.5 mph 92% 0 in 0.00 W/m2 unknown
23:09 46.4 °F 44.6 °F 30 in NW 1.9 mph 2.5 mph 92% 0 in 0.00 W/m2 unknown
23:14 46.4 °F 44.6 °F 30 in NNW 1.2 mph 2.5 mph 92% 0 in 0.00 W/m2 unknown
23:19 46.4 °F 44.6 °F 30 in NNW 2.5 mph 3.7 mph 92% 0 in 0.00 W/m2 unknown
23:24 46.4 °F 44.6 °F 30 in NNW 1.9 mph 3.1 mph 92% 0 in 0.00 W/m2 unknown
23:29 46.4 °F 44.6 °F 30 in NNW 1.9 mph 3.7 mph 92% 0 in 0.00 W/m2 unknown
23:34 46.4 °F 44.6 °F 30 in NNW 1.9 mph 3.7 mph 92% 0 in 0.00 W/m2 unknown
23:39 46.4 °F 44.6 °F 30 in NNW 1.2 mph 3.1 mph 92% 0 in 0.00 W/m2 unknown
23:44 46.4 °F 44.6 °F 30 in Calm   1.9 mph 92% 0 in 0.00 W/m2 unknown
23:49 46.4 °F 44.6 °F 30 in Calm     92% 0 in 0.00 W/m2 unknown
23:54 46.4 °F 44.6 °F 30 in Calm     92% 0 in 0.00 W/m2 unknown
23:59 46.4 °F 44.6 °F 30 in Calm     92% 0 in 0.00 W/m2 unknown
Stazione Meteorologica MeteoMincio Rivalta s/M (MN)
Con i complimenti di Weather Underground - 4 mb



GLOSSARIO METEOROLOGICO
Nubifragio
Precipitazione estremamente violenta di carattere temporalesco, che in breve tempo rovescia al suolo grandi quantità di acqua, producendo ingrossamento e straripamento dei corsi d'acqua, allagamenti e frane. Secondo certi autori si può parlare di nubifragi soltanto se la durata è di almeno mezz'ora e l'intensità di precipitazione di almeno 40 mm in mezz'ora, di 60 in un'ora, di 70 in due ore, di 80 in tre ore (BILANCINI).
Share

Non seguire questo link o sarai bannato dal sito!